Back to catalog

FENGYUN 1C DEB

AlivePO
NORAD 31666·DEBRIS·🇨🇳 China

Launched May 10, 1999 from Taiyuan Satellite Launch Center

Loading…

Next Passes (next 24 hours)

TLE

FreshSource: Space-Track

Epoch: Sep 14, 2026, 10:43 UTC

1 31666U 99025CBY 26257.44698735  .00025090  00000-0  18804-2 0  9994
2 31666  98.6655  79.1749 0014722 337.4016  22.6556 15.02591363 13544

Track FENGYUN 1C DEB in real time with AllMySat

Download on the App Store